Location: Sedan
(39.2354°N, 78.5718°W)
Time: 20:23:53
(UTC+00:00)

ISS - Pass Details

Date: 08 December 2021
Orbit: 413 x 422 km, 51.6° (Epoch: 25 January)

Event Time Altitude Azimuth Distance (km) Brightness Sun altitude
Rises 23:53:38 0° 296° (WNW) 2,378 0.9 -23.0°
Reaches altitude 10° 23:56:02 10° 281° (W) 1,507 0.0 -23.5°
Maximum altitude 23:58:43 22° 228° (SW) 968 -1.3 -24.0°
Enters shadow 00:00:05 17° 194° (SSW) 1,125 -1.4 -24.3°
